OBJECT E, 63214

Orbit data source: Space-Track

You're viewing an Uncataloged Satellite

Recently launched and/or uncataloged satellites may have evolving metadata. Metadata may include but not limited to: Owner, Maufacturer, Bus, Motor, and Mission.

OBJECT E, 63214 is a satellite in SSO that was launched on Sat, 15 Mar 2025 UTC via an FALCON 9 launch vehicle from the Air Force Western Test Range (AFWTR). Unknown objects in Earth's orbit typically refer to objects detected orbiting the Earth but have not yet been identified or cataloged. These objects could be anything from previously untracked satellites, spent rocket stages, debris from satellite collisions, or even natural meteoroids temporarily captured by Earth's gravity.

Loading next visibility...
Identifier
63214, 2025-052E
Orbit
SSO
Country
Flag of TBDTBD
Related business
Flag of ILTel Aviv University (IL)
Manufacturer
ISA/TAU
Mission
Operational Amateur Communications
Bus & Motor
CUBESAT 1U, Unknown motor
Mass
1 kg wet, 1 kg dry
Launch date (UTC)
2025-03-15 (1 year ago)
Launch vehicle
FALCON 9
Launch site
Air Force Western Test Range (AFWTR)
Object type
Unknown
Shape & HBR
Box, 0.1 m
Radar Cross Section
0.015 m², Medium (>0.1 m² and < 1m²)

Expand to show TLE details & history
Last TLE update: 23 hours ago

TLE from 23 hours ago
0 OBJECT E
1 63214U 25052E   26206.46645690  .00018969  00000-0  54811-3 0  9991
2 63214  97.3856 102.8833 0002463  34.7171 325.4233 15.35691666 75988
Epoch: 2026-07-25T11:11Z
TLE epoch observation values (Epoch: 2026-07-25T11:11:41.876Z)
Latitude
-0.00001°
Longitude
-8.21951°
Altitude
460.592 km
Speed
7.637 km/s
True Right ascension
06h 51m 31s
True Declination
0° 00' 00"
Sunlit
Object was in daylight at epoch
Visualization orbit readout
Latitude
Unknown
Longitude
Unknown
Altitude
Unknown
Speed
Unknown
Apparent Right ascension
Unknown
Apparent Declination
Unknown
Sunlit
N/A
Visualization observer readout
Local Sidereal Time
23:03:59
Azimuth
Unknown
Elevation
Unknown
Doppler factor
Unknown
Orbital elements
Apogee altitude
457.494 km
Perigee altitude
454.128 km
Semi-major axis
6,833.948 km
Eccentricity
0.00025
Inclination
97.3856°
RAAN
102.8833°
Arg. of periapsis
34.7171°
True anomaly
325.40728°
Mean anomaly
325.4233°
Eccentric anomaly
325.41529°
Mean motion
3.84181 °/min
Orbital period
93.71 mins
BSTAR
0.00054811
Loading maneuver chart data...
Computing Atmospheric mass density...
Loading historical data...
Loading historical data...
Loading historical data...
Loading historical data...
Loading historical data...
Loading historical data...
Loading historical data...

Documentation

Showing up to 5 results
|